Location: Dominion City
(49.1330°N, 97.1500°W)
Time: 05:51:59
(UTC-05:00)

Daily predictions for brighter satellites

Satellite Brightness Start Highest point End
(mag) Time Altitude Azimuth Time Altitude Azimuth Time Altitude Azimuth
ATLAS CENTAUR R/B 2.1 00:05:54 31° ESE 00:05:54 31° ESE 00:08:53 10° ENE
SL-19 R/B 4.5 00:00:03 10° NNE 00:06:00 84° WNW 00:10:35 19° SSW
Cosmos 2082 4.5 00:01:42 10° NNW 00:07:12 45° NE 00:10:40 21° ESE
Meteor 1-20 Rocket 4.4 00:05:11 31° SSE 00:07:53 62° E 00:13:30 10° NNE
Meteor 1-25 Rocket 4.3 00:05:44 30° S 00:08:39 69° E 00:14:28 10° NNE
ISS -3.8 00:07:58 10° WSW 00:11:13 78° NNW 00:14:29 10° ENE
DELTA 2 DEB (DPAF) 4.2 00:11:20 37° S 00:13:01 72° WSW 00:17:31 10° NNW
ARGOS Delta rocket 3.6 00:10:55 10° NNE 00:15:32 88° ESE 00:17:17 37° S
Meteor 1-14 Rocket 4.3 00:13:52 25° SSW 00:17:27 83° WNW 00:23:18 10° N
Cosmos 1656 Rocket 3.8 00:13:09 14° SW 00:17:56 72° WNW 00:23:30 10° NNE
PSLV R/B 4.3 00:19:17 30° W 00:19:19 30° W 00:21:50 10° NNW
Cosmos 1908 Rocket 4.2 00:18:36 24° SW 00:21:05 51° WNW 00:25:27 10° N
Cosmos 1867 4.3 00:17:28 10° NW 00:22:35 41° WSW 00:24:30 30° SSW
Okean 2 Rocket 3.0 00:22:30 45° S 00:23:47 73° E 00:28:14 10° NNE
Mayak 0.5 00:23:25 10° NE 00:26:31 20° E 00:26:48 20° E
Terra 3.6 00:24:15 15° SW 00:26:56 24° W 00:30:47 10° NW
CZ-2C R/B 3.0 00:25:43 37° SSE 00:27:43 75° ENE 00:32:40 10° N
H-2A R/B 4.5 00:26:41 10° WSW 00:29:35 15° W 00:32:29 10° NW
Cosmos 1536 4.4 00:30:56 22° E 00:31:17 22° E 00:34:28 10° NE
CENTAUR R/B 3.5 00:25:48 10° WSW 00:31:59 51° NW 00:39:04 10° NE
deb Chang Zheng 4 4.3 00:28:29 10° N 00:32:49 51° WNW 00:35:13 24° SW
Cosmos 1812 3.8 00:29:26 10° NNW 00:33:02 37° W 00:34:04 31° SW
CZ-4C R/B 4.1 00:32:15 36° SSW 00:33:32 48° W 00:37:36 10° NNW
Cosmos 2227 Rocket 2.2 00:27:55 10° NNW 00:33:37 76° ENE 00:36:07 35° SE
Gbstr 26 Del rocket 2.6 00:30:45 10° WNW 00:35:03 81° SSW 00:35:53 54° SE
Cosmos 2219 3.9 00:31:07 10° NW 00:36:30 42° WSW 00:38:45 29° SSW
Meteor 1-11 Rocket 4.4 00:36:32 32° SE 00:38:39 45° E 00:44:18 10° NNE
Okean 1 3.5 00:34:48 10° NNW 00:38:47 62° W 00:39:36 48° SSW
Cosmos 2266 Rocket 4.3 00:37:32 33° SSE 00:40:00 53° E 00:45:56 10° NNE
CZ-2C R/B 2.7 00:35:17 10° NNE 00:40:25 61° ESE 00:42:04 41° SSE
Okean 1 Rocket 4.5 00:41:29 23° E 00:42:06 24° E 00:45:35 10° NE
Cosmos 1782 Rocket 4.4 00:46:16 28° SW 00:48:11 45° WNW 00:52:26 10° N
Cosmos 1655 Rocket 4.2 00:45:17 27° SSW 00:48:44 68° W 00:55:00 10° N
Lacrosse 5 rocket 2.8 00:47:58 10° W 00:51:21 34° NNW 00:54:52 10° NE
Cosmos 405 Rocket 4.1 00:49:16 10° NW 00:52:26 27° W 00:53:04 25° WSW
Meteor 2-4 Rocket 3.7 00:48:00 10° N 00:53:22 66° ENE 00:55:18 39° SE
Cosmos 1656 4.4 00:53:47 32° SE 00:54:46 34° ESE 00:59:41 10° NE
Cosmos 2369 4.1 00:55:17 38° SSE 00:56:44 46° ESE 01:02:10 10° NE
CZ-4C R/B 3.5 00:51:54 10° NW 00:58:32 52° NE 01:06:01 10° ESE
CZ-4C R/B 4.1 00:58:53 31° ENE 00:59:07 31° ENE 01:02:07 10° N
Cosmos 1943 Rocket 4.4 00:55:21 10° W 00:59:42 23° NW 01:04:04 10° N
Cosmos 1633 2.8 00:59:40 51° WSW 01:00:05 56° WNW 01:03:38 10° N
Cosmos 2056 Rocket 4.1 01:02:35 36° SE 01:03:29 39° ESE 01:08:14 10° NE
APEX 3.7 00:59:16 10° NW 01:03:52 48° WSW 01:04:13 47° SW
Cosmos 1980 Rocket 3.8 01:03:42 17° ESE 01:04:41 18° E 01:08:22 10° ENE
CZ-4B R/B 3.2 01:04:25 23° E 01:05:08 25° ENE 01:08:04 10° N
ALOS 2 2.7 01:05:43 51° SSW 01:06:36 64° WSW 01:11:00 10° NNW
Cosmos 1689 Rocket 4.0 01:11:06 23° ENE 01:11:26 24° ENE 01:14:06 10° NNE
Cosmos 1025 Rocket 3.6 01:08:44 10° N 01:12:58 47° ENE 01:13:59 39° ESE
Cosmos 2151 Rocket 3.8 01:18:03 44° SW 01:19:13 62° WNW 01:23:38 10° N
Nadezhda 2 Rocket 4.5 01:24:45 39° SSE 01:27:04 71° E 01:33:10 10° NNE
H-2A R/B 4.3 01:25:18 10° NE 01:28:08 18° E 01:28:35 18° E
Cosmos 2297 Rocket 2.4 01:22:56 10° NW 01:28:29 54° WSW 01:30:03 41° SSW
Cosmos 1536 Rocket 4.3 01:25:57 10° NNW 01:30:05 40° W 01:30:52 36° WSW
SAR-Lupe-2 4.2 01:31:31 44° E 01:31:56 47° ENE 01:35:24 10° N
Cosmos 1697 Rocket 3.1 01:30:56 39° SSE 01:32:19 47° ESE 01:37:41 10° NE
GP-B 3.1 01:30:38 10° N 01:35:05 72° W 01:36:00 53° SSW
Cosmos 1892 Rocket 4.5 01:34:10 10° N 01:38:27 42° ENE 01:39:53 32° ESE
Spot 2 3.7 01:35:16 10° NNE 01:39:23 86° ESE 01:39:55 66° S
Cosmos 1300 Rocket 3.7 01:39:21 50° SW 01:40:16 65° WNW 01:44:38 10° N
Cosmos 921 Rocket 3.1 01:41:32 53° SE 01:42:01 57° ESE 01:46:12 10° NNE
ATLAS CENTAUR R/B 2.6 01:42:08 19° W 01:44:23 34° NW 01:47:53 10° NNE
SL-16 R/B 4.3 01:44:16 12° ESE 01:46:10 14° E 01:48:54 10° ENE
ISS -3.1 01:44:42 10° WNW 01:47:55 52° N 01:51:07 10° E
Cosmos 1371 Rocket 4.1 01:48:18 39° SW 01:50:16 71° WNW 01:55:30 10° NNE
Cosmos 614 Rocket 4.3 01:45:25 10° NNW 01:50:27 60° ENE 01:52:46 31° SE
Okean 2 3.2 01:46:18 10° N 01:50:29 86° W 01:51:03 66° S
Cosmos 2082 4.5 01:46:03 10° NW 01:51:14 36° WSW 01:52:30 32° SW
Cosmos 1190 Rocket 4.3 01:49:31 10° NNW 01:54:32 50° WSW 01:55:41 42° SW
Cosmos 2322 Rocket 4.1 01:53:12 14° ESE 01:55:10 17° E 01:58:39 10° ENE
Cosmos 2278 3.9 01:54:09 33° SW 01:56:47 69° WNW 02:02:29 10° NNE
Landsat 5 3.1 01:56:56 72° S 01:57:16 84° WSW 02:01:09 10° NNW
Mayak -0.6 01:58:22 10° N 02:02:25 46° WNW 02:03:28 37° WSW
Genesis I 3.1 02:00:02 10° NW 02:04:02 90° NE 02:04:39 63° SE
Cosmos 676 Rocket 4.0 01:59:50 10° NNW 02:05:01 66° WSW 02:06:30 45° S
SL-24 R/B 4.5 02:03:45 42° S 02:05:36 83° WSW 02:10:32 10° NNW
USA 234 4.1 02:01:10 10° ENE 02:06:51 31° SE 02:08:23 28° SSE
Cosmos 1536 3.9 02:06:41 32° W 02:07:32 35° WNW 02:11:19 10° N
Cosmos 2227 4.2 02:03:29 10° NNW 02:09:09 80° ENE 02:12:02 30° SE
Cosmos 839 Rocket 4.5 02:08:22 34° SSE 02:10:28 46° ESE 02:16:21 10° NE
Cosmos 1544 Rocket 4.0 02:13:08 42° SE 02:14:12 54° E 02:18:33 10° NNE
Cosmos 1624 Rocket 4.5 02:12:41 31° SW 02:15:02 55° WNW 02:20:18 10° NNE
Cosmos 2227 Rocket 3.7 02:13:05 10° NW 02:17:01 20° W 02:17:54 19° WSW
Cosmos 1461 3.1 02:12:47 10° NW 02:17:05 72° NE 02:19:15 29° SE
Cosmos 407 Rocket 4.3 02:13:11 10° NW 02:18:02 36° WSW 02:19:06 33° SW
Okean 1-7 Rocket 4.2 02:14:04 10° NNW 02:18:09 39° W 02:18:49 37° WSW
Cosmos 1066 Rocket 4.1 02:12:44 10° N 02:18:12 83° ENE 02:20:22 37° SSE
Cosmos 1741 Rocket 4.2 02:14:27 10° NNW 02:19:41 70° ENE 02:22:27 28° SE
Okean 1 Rocket 4.0 02:18:40 32° WSW 02:19:49 37° WNW 02:23:53 10° N
Cosmos 1745 Rocket 4.0 02:17:35 35° S 02:20:18 75° E 02:26:27 10° NNE
CZ-2C R/B 4.4 02:16:19 10° N 02:20:19 23° WNW 02:23:35 13° WSW
Cosmos 1515 4.1 02:19:52 10° NNW 02:23:32 45° W 02:23:42 45° WSW
Cosmos 1140 Rocket 3.5 02:18:59 10° NNW 02:24:07 65° WSW 02:25:41 43° S
MINOTAUR IV R/B 4.5 02:19:47 10° NNW 02:24:17 74° WSW 02:25:20 50° S
BREEZE-M DEB (TANK) 3.2 02:14:50 10° WSW 02:25:25 61° SSE 02:28:45 10° E
ADEOS Rocket 4.4 02:22:30 10° NNE 02:27:59 29° E 02:31:34 17° SE
USA 229 DEB 3.7 02:25:49 29° SW 02:29:36 88° NW 02:36:40 10° NE
USA 229 3.7 02:25:56 29° SW 02:29:43 88° NW 02:36:45 10° NE
SL-08 R/B 4.5 02:27:01 36° SSW 02:29:49 80° W 02:36:12 10° N
Cosmos 1455 Rocket 3.1 02:29:38 47° SSE 02:30:46 69° E 02:35:07 10° NNE
Lacrosse 5 rocket 3.5 02:28:10 10° NW 02:31:21 25° N 02:34:40 10° ENE
NOSS 3-1 (A) 4.1 02:33:28 30° SSE 02:35:38 41° ESE 02:41:42 10° NE
Cosmos 2263 Rocket 2.9 02:30:55 10° NNW 02:36:32 54° NE 02:42:06 10° SE
CZ-2D R/B 4.3 02:33:03 10° NE 02:36:40 18° E 02:40:15 10° SE
CZ-4B R/B 2.9 02:37:59 26° W 02:37:59 26° W 02:40:46 10° NW
Cosmos 1656 4.4 02:35:12 23° WSW 02:38:17 45° NW 02:43:36 10° NNE
Cosmos 405 3.1 02:39:42 57° SE 02:40:06 63° E 02:43:37 10° NNE
SL-08 R/B 4.2 02:37:31 18° SE 02:40:40 43° ENE 02:45:02 10° N
Cosmos 1689 Rocket 4.1 02:43:53 21° WNW 02:43:53 21° WNW 02:45:55 10° NW
Cosmos 1743 2.9 02:43:11 48° SSE 02:44:02 65° E 02:47:53 10° NNE
Cosmos 44 4.3 02:41:21 10° NNW 02:45:30 41° NE 02:49:42 10° ESE
Cosmos 1238 Rocket 4.2 02:41:51 10° NNW 02:46:32 41° W 02:48:26 31° SW
CZ-4C R/B 3.0 02:40:28 10° NW 02:47:20 54° WSW 02:51:52 25° S
PSLV R/B 3.8 02:42:34 10° NNE 02:47:21 84° WNW 02:49:05 40° SSW
Cosmos 2360 Rocket 4.2 02:44:09 11° SE 02:47:30 18° E 02:51:07 10° ENE
Cosmos 1980 Rocket 2.2 02:45:27 35° SW 02:47:59 82° WNW 02:53:39 10° NNE
PSLV R/B 4.0 02:51:14 36° SSE 02:52:55 81° ENE 02:57:10 10° NNW
BREEZE-M (TANK) 4.3 02:49:51 10° WNW 02:52:15 20° W 02:52:15 20° W
Cosmos 1500 4.0 02:54:18 34° WSW 02:55:04 38° WNW 02:58:41 10° N
ATLAS 3B R/B 4.2 02:53:07 10° NW 02:59:31 38° NNE 03:05:37 10° E
Cosmos 1975 3.4 02:59:20 37° WSW 03:00:23 45° WNW 03:04:20 10° N
Cosmos 1602 Rocket 3.5 02:56:13 10° N 03:00:42 86° W 03:02:27 37° S
H-2A R/B 2.9 03:00:02 10° N 03:03:59 46° WNW 03:05:11 35° WSW
Cosmos 1437 Rocket 3.1 03:02:41 36° SSE 03:04:09 61° E 03:08:15 10° NNE
BREEZE M DEB (TANK) 2.3 03:07:51 36° ESE 03:07:51 36° ESE 03:09:50 10° E
USA 81 4.3 03:05:12 10° NNW 03:10:22 56° W 03:12:39 32° SSW
Cosmos 1452 Rocket 4.2 03:09:08 25° WSW 03:11:52 46° WNW 03:16:59 10° NNE
Meteor 1-21 4.2 03:09:13 10° NNW 03:14:48 71° W 03:17:56 27° S
Cosmos 1697 Rocket 3.8 03:12:40 17° WSW 03:16:26 36° NW 03:21:37 10° NNE
NOSS 3-1 (C) 3.4 03:16:27 27° SW 03:19:58 86° NW 03:26:44 10° NE
Helios 1A Rocket 2.8 03:17:46 10° NNE 03:21:50 78° WNW 03:23:25 36° SSW
ATLAS CENTAUR R/B 4.2 03:23:36 10° NNW 03:24:25 11° NNW 03:25:14 10° N
ISS -4.0 03:21:15 10° WNW 03:24:31 76° SSW 03:27:46 10° ESE
UNK 4.1 03:22:03 14° SSE 03:25:58 65° ENE 03:30:34 10° N
Cosmos 44 Rocket 3.1 03:22:18 10° NW 03:27:03 88° WSW 03:31:49 10° SE
SL-16 R/B 2.2 03:26:08 27° SSW 03:29:20 80° ESE 03:35:02 10° NNE
Cosmos 1709 Rocket 4.0 03:27:28 26° SSW 03:31:04 70° WNW 03:37:11 10° N
Meteor 1-4 Rocket 3.8 03:30:12 19° SSE 03:32:09 35° E 03:35:26 10° NNE
IRS-1D 4.2 03:29:35 10° NNE 03:34:21 45° E 03:38:04 16° SSE
Meteor 2-9 Rocket 4.3 03:30:58 24° S 03:34:41 88° E 03:40:36 10° NNE
Cosmos 1626 Rocket 4.4 03:33:18 10° NNW 03:37:18 35° W 03:38:47 27° SW
Cosmos 1110 Rocket 4.1 03:35:10 25° S 03:38:14 73° ESE 03:43:26 10° NNE
Cosmos 2322 Rocket 2.2 03:35:01 25° SSW 03:38:25 88° WNW 03:44:11 10° NNE
Cosmos 1606 Rocket 4.3 03:35:27 18° SSE 03:38:31 50° E 03:42:50 10° NNE
Cosmos 1666 3.6 03:42:14 27° WSW 03:43:41 37° WNW 03:47:18 10° N
SL-16 R/B 2.5 03:40:35 11° SSE 03:46:34 80° WSW 03:52:53 10° NNW
USA 234 3.3 03:43:49 10° ENE 03:50:25 87° SE 03:55:43 17° SW
Resurs 1-4 Rocket 2.2 03:51:56 10° NNE 03:57:15 74° ESE 04:01:28 16° S
Cosmos 1825 Rocket 3.6 03:53:08 10° NNW 03:57:32 63° W 04:00:35 19° S
IRS-1C 4.1 03:52:17 10° NNE 03:57:39 80° WNW 04:01:31 19° SSW
Cosmos 1758 Rocket 3.4 03:54:24 10° NNW 03:58:47 82° W 04:02:24 14° S
ARIANE 5 R/B 2.7 03:57:28 10° NNE 04:02:36 72° ESE 04:06:58 15° S
Cosmos 2184 Rocket 4.0 04:00:07 16° S 04:05:19 88° WNW 04:11:32 10° N
BREEZE-M DEB (TANK) 4.2 04:05:01 11° SSE 04:06:20 14° SE 04:08:25 10° ESE
BREEZE-M DEB (TANK) 3.1 04:03:20 10° W 04:06:34 89° N 04:17:02 10° E
Lacrosse 5 rocket 2.4 04:07:29 10° NW 04:11:14 46° NNE 04:15:13 10° E
Cosmos 1184 Rocket 3.2 04:10:17 10° N 04:13:37 63° ENE 04:16:53 10° SSE
UNKNOWN OBJECT B 3.6 04:10:05 10° NNE 04:13:46 46° E 04:17:30 10° S
NPP 4.2 04:08:42 10° N 04:13:50 46° WNW 04:17:47 16° SW
ADEOS Rocket 3.4 04:07:38 10° N 04:13:55 54° WNW 04:18:31 16° SW
Cosmos 1271 Rocket 3.9 04:11:45 10° SSE 04:15:32 41° E 04:19:18 10° NNE
CZ-2D R/B 2.2 04:11:52 10° NNE 04:17:23 80° WNW 04:22:07 14° SSW
Cosmos 2228 3.3 04:13:49 12° S 04:17:44 68° E 04:22:01 10° NNE
SL-08 R/B 4.5 04:16:30 18° SW 04:18:42 25° W 04:22:29 10° NW
Cosmos 1331 Rocket 4.2 04:16:13 17° SW 04:20:03 60° WNW 04:25:12 10° NNE
Cosmos 2263 Rocket 3.1 04:15:20 10° NW 04:20:10 29° WSW 04:24:05 14° SSW
ATLAS 2AS CENTAUR R/B 3.6 04:14:19 12° SSW 04:21:19 54° ESE 04:29:11 10° NE
Cosmos 389 Rocket 4.2 04:22:32 10° SSE 04:25:40 30° E 04:28:52 10° NNE
NOSS 3-1 (A) 4.1 04:20:54 12° WSW 04:26:24 53° NW 04:33:08 10° NE
Cosmos 44 3.8 04:22:44 10° NW 04:26:36 31° WSW 04:30:33 10° S
Cosmos 2360 Rocket 2.2 04:25:56 15° SSW 04:30:46 84° WNW 04:36:28 10° NNE
Nadezhda 3 Rocket 4.0 04:24:53 10° N 04:31:08 83° W 04:37:25 10° S
Cosmos 1980 Rocket 4.1 04:28:48 10° W 04:32:54 20° NW 04:37:00 10° N
NOSS 2-3 (E) 4.2 04:29:15 14° SSW 04:33:20 70° SE 04:39:04 10° NE
COSMOS 2428 3.4 04:28:00 10° S 04:33:33 52° ESE 04:39:07 10° NE
Cosmos 1953 Rocket 4.3 04:30:58 10° NNW 04:35:04 37° W 04:38:52 12° SSW
Cosmos 2219 Rocket 3.6 04:30:18 10° SSE 04:35:20 34° ESE 04:40:23 10° NE
Cosmos 2058 Rocket 3.2 04:33:27 12° SSW 04:37:39 69° WNW 04:42:10 10° N
Aureole 2 Rocket 4.5 04:34:52 10° SSE 04:38:30 30° ESE 04:42:03 10° NE
Cosmos 2237 Rocket 4.4 04:34:31 10° SSE 04:38:34 21° E 04:42:37 10° NE
ATLAS CENTAUR R/B 3.1 04:30:56 10° WNW 04:39:31 60° NNE 04:42:47 10° ESE
Cosmos 2074 Rocket 4.4 04:34:21 13° SSW 04:39:54 50° WNW 04:46:03 10° N
Cosmos 1844 Rocket 2.7 04:35:28 10° NNW 04:41:10 79° WSW 04:46:50 10° SSE
MOS 1 Rocket 3.3 04:38:23 10° N 04:43:00 64° WNW 04:47:18 10° SSW
Cosmos 972 Rocket 4.1 04:39:51 10° SSW 04:44:43 74° ESE 04:49:45 10° NNE
MOZ.5/SAFIR/RUBIN 5/SL-8 4.0 04:41:00 10° S 04:45:30 49° W 04:50:01 10° NNW
Cosmos 1354 Rocket 4.1 04:42:48 10° NNW 04:48:01 58° WSW 04:53:12 10° S
Meteor 2-5 Rocket 3.9 04:43:39 10° NNW 04:49:08 53° W 04:54:40 10° S
Okean O Rocket 3.6 04:45:21 10° NE 04:49:11 27° E 04:52:58 10° SSE
Cosmos 1812 Rocket 4.3 04:45:51 10° S 04:50:05 52° E 04:54:19 10° NNE
ATLAS 3B R/B 2.6 04:43:59 10° NW 04:50:46 74° SW 04:57:16 10° SSE
Cosmos 2333 Rocket 3.5 04:47:31 10° S 04:52:42 37° ESE 04:57:52 10° NE
Cosmos 1544 4.1 04:49:13 10° S 04:52:46 48° E 04:56:24 10° NNE
Cosmos 2322 3.8 04:48:50 11° SW 04:54:20 69° WNW 05:00:01 10° NNE
SeaSat 1 2.6 04:50:28 10° SE 04:55:24 83° ENE 05:00:22 10° NNW
Cosmos 1707 3.7 04:53:06 10° NNW 04:56:27 28° W 04:59:47 10° SSW
SL-8 R/B 4.2 04:52:18 11° SW 04:56:48 48° SSE 05:01:27 10° E
Meteor 1-24 Rocket 3.6 04:52:08 10° NNW 04:57:29 70° W 05:02:57 10° S
Cosmos 2154 Rocket 4.1 04:53:16 10° SSW 04:59:32 65° WNW 05:05:48 10° N
BREEZE-M DEB (TANK) 4.1 04:49:05 10° WSW 05:00:31 47° S 05:03:27 10° E
ISS -2.3 04:58:21 10° W 05:00:35 17° SW 05:02:48 10° S
Cosmos 1766 3.3 04:59:24 10° S 05:03:19 90° W 05:07:17 10° N
Iridium 4 Rocket 4.5 04:58:42 10° SW 05:04:05 37° W 05:09:16 10° N
Cosmos 2278 Rocket 2.6 04:59:43 10° NNW 05:05:24 71° ENE 05:11:04 10° SE
ADEOS 4.2 05:00:43 10° N 05:05:36 41° WNW 05:10:28 10° SW
Cosmos 1378 4.3 05:03:07 10° NNW 05:06:16 26° W 05:09:25 10° SSW
NOSS 2-3 (C) 4.2 05:01:41 10° SW 05:06:35 75° NW 05:12:29 10° NE
Meteor 1-4 Rocket 4.3 05:04:56 10° WSW 05:07:26 18° WNW 05:09:59 10° NNW
USA 161 1.7 05:05:11 10° S 05:08:07 51° W 05:10:59 10° NNW
USA 238 DEB 3.8 05:05:05 10° NW 05:12:07 68° SW 05:19:11 10° SSE
USA 238 3.8 05:05:11 10° NW 05:12:13 68° SW 05:19:18 10° SSE
SL-16 R/B 3.8 05:09:35 10° W 05:14:07 24° NW 05:18:42 10° N
Cosmos 968 Rocket 3.5 05:09:51 10° NNW 05:15:05 89° WSW 05:20:14 10° SSE
CZ-2D R/B 4.1 05:11:56 10° N 05:16:06 45° WNW 05:20:10 10° SW
Cosmos 2341 Rocket 4.2 05:12:29 10° SSW 05:18:49 65° WNW 05:25:11 10° N
